When you browse on this site, cookies collect data to enhance your experience and personalize the content and advertising you see.
Visit our Privacy Policy to learn more. By continuing to use the site, you agree to this use of cookies and data.
  • In France
  • List of Countries
  • For 7 days
  • Water Temperature
  • Satellite Maps
  • Weather Map
  • Weather Widgets
  • user-avatar
    Login

    Hourly Weather Elbasan

    Today, 24 March, Sunday

    Time Temperature Precipitation Wind Pressure Humidity
    00:00 +13°C° 0 mm 2 mps 738 mmHg 54%
    01:00 +12°C° 0 mm 3 mps 738 mmHg 55%
    02:00 +12°C° 0 mm 3 mps 738 mmHg 58%
    03:00 +11°C° 0 mm 3 mps 738 mmHg 60%
    04:00 +11°C° 0 mm 3 mps 738 mmHg 62%
    05:00 +11°C° 0 mm 3 mps 738 mmHg 61%
    06:00 +12°C° 0 mm 3 mps 738 mmHg 60%
    07:00 +12°C° 0 mm 3 mps 738 mmHg 59%
    08:00 +15°C° 0 mm 2 mps 738 mmHg 50%
    09:00 +18°C° 0 mm 2 mps 738 mmHg 41%
    10:00 +20°C° 0 mm 2 mps 738 mmHg 33%
    11:00 +21°C° 0 mm 2 mps 738 mmHg 31%
    12:00 +23°C° 0 mm 2 mps 738 mmHg 29%
    13:00 +23°C° 0 mm 1 mps 738 mmHg 27%
    14:00 +23°C° 0 mm 2 mps 737 mmHg 30%
    15:00 +21°C° 0 mm 2 mps 737 mmHg 33%
    16:00 +21°C° 0 mm 3 mps 737 mmHg 36%
    17:00 +19°C° 0 mm 2 mps 737 mmHg 44%
    18:00 +16°C° 0 mm 1 mps 737 mmHg 52%
    19:00 +13°C° 0 mm 0 mps 736 mmHg 59%
    20:00 +13°C° 0 mm 0 mps 737 mmHg 60%
    21:00 +13°C° 0 mm 0 mps 737 mmHg 61%
    22:00 +12°C° 0 mm 0 mps 737 mmHg 62%
    23:00 +12°C° 0 mm 0 mps 737 mmHg 62%

    Tomorrow, 25 March, Monday

    Time Temperature Precipitation Wind Pressure Humidity
    00:00 +12°C° 0 mm 0 mps 737 mmHg 62%
    01:00 +12°C° 0 mm 1 mps 737 mmHg 62%
    02:00 +12°C° 0 mm 1 mps 736 mmHg 62%
    03:00 +11°C° 0 mm 0 mps 736 mmHg 63%
    04:00 +10°C° 0 mm 0 mps 735 mmHg 63%
    05:00 +11°C° 0 mm 0 mps 735 mmHg 61%
    06:00 +13°C° 0 mm 1 mps 735 mmHg 59%
    07:00 +13°C° 0 mm 1 mps 735 mmHg 57%
    08:00 +15°C° 0 mm 1 mps 735 mmHg 50%
    09:00 +18°C° 0 mm 1 mps 735 mmHg 44%
    10:00 +18°C° 0 mm 2 mps 735 mmHg 37%
    11:00 +19°C° 0 mm 2 mps 734 mmHg 36%
    12:00 +19°C° 0 mm 3 mps 734 mmHg 35%
    13:00 +20°C° 0 mm 3 mps 733 mmHg 35%
    14:00 +19°C° 0 mm 3 mps 733 mmHg 38%
    15:00 +19°C° 0 mm 3 mps 732 mmHg 41%
    16:00 +18°C° 0 mm 3 mps 732 mmHg 44%
    17:00 +16°C° 0 mm 2 mps 732 mmHg 52%
    18:00 +14°C° 0 mm 1 mps 731 mmHg 59%
    19:00 +12°C° 0 mm 0 mps 731 mmHg 67%
    20:00 +11°C° 0 mm 0 mps 731 mmHg 66%
    21:00 +12°C° 0 mm 1 mps 731 mmHg 66%
    22:00 +11°C° 0 mm 1 mps 731 mmHg 65%
    23:00 +11°C° 0 mm 1 mps 731 mmHg 62%

    Day after tomorrow, 26 March, Tuesday

    Time Temperature Precipitation Wind Pressure Humidity
    00:00 +11°C° 0 mm 1 mps 731 mmHg 60%
    01:00 +10°C° 0 mm 0 mps 731 mmHg 57%
    02:00 +11°C° 0 mm 1 mps 731 mmHg 56%
    03:00 +11°C° 0 mm 1 mps 731 mmHg 55%
    04:00 +10°C° 0 mm 1 mps 731 mmHg 54%
    05:00 +11°C° 0 mm 1 mps 731 mmHg 54%
    06:00 +12°C° 0 mm 1 mps 732 mmHg 55%
    07:00 +12°C° 0 mm 1 mps 732 mmHg 55%
    08:00 +14°C° 0 mm 1 mps 732 mmHg 51%
    09:00 +16°C° 0 mm 1 mps 732 mmHg 47%
    10:00 +19°C° 0 mm 1 mps 733 mmHg 43%
    11:00 +19°C° 0.1 mm 1 mps 733 mmHg 42%
    12:00 +19°C° 0.1 mm 2 mps 733 mmHg 42%
    13:00 +19°C° 0.1 mm 2 mps 733 mmHg 41%
    14:00 +19°C° 0.4 mm 2 mps 733 mmHg 43%
    15:00 +18°C° 0.4 mm 2 mps 733 mmHg 46%
    16:00 +18°C° 0.4 mm 2 mps 733 mmHg 48%
    17:00 +16°C° 0.1 mm 2 mps 734 mmHg 53%
    18:00 +15°C° 0.1 mm 2 mps 734 mmHg 58%
    19:00 +14°C° 0.1 mm 1 mps 735 mmHg 63%
    20:00 +13°C° 0 mm 2 mps 735 mmHg 63%
    21:00 +12°C° 0 mm 2 mps 736 mmHg 63%
    22:00 +11°C° 0 mm 3 mps 736 mmHg 63%
    23:00 +10°C° 0 mm 3 mps 736 mmHg 63%

    27 March, Wednesday

    Time Temperature Precipitation Wind Pressure Humidity
    00:00 +9°C° 0 mm 3 mps 737 mmHg 64%
    01:00 +9°C° 0 mm 3 mps 737 mmHg 64%
    02:00 +8°C° 0 mm 3 mps 737 mmHg 64%
    03:00 +8°C° 0 mm 3 mps 737 mmHg 63%
    04:00 +8°C° 0 mm 3 mps 737 mmHg 63%
    05:00 +8°C° 0 mm 3 mps 737 mmHg 60%
    06:00 +8°C° 0 mm 3 mps 737 mmHg 57%
    07:00 +9°C° 0 mm 3 mps 737 mmHg 54%
    08:00 +11°C° 0 mm 3 mps 737 mmHg 48%
    09:00 +13°C° 0 mm 3 mps 738 mmHg 43%
    10:00 +16°C° 0 mm 3 mps 738 mmHg 37%
    11:00 +16°C° 0 mm 3 mps 738 mmHg 38%
    12:00 +16°C° 0 mm 2 mps 738 mmHg 39%
    13:00 +17°C° 0 mm 2 mps 737 mmHg 40%
    14:00 +16°C° 0 mm 2 mps 737 mmHg 42%
    15:00 +16°C° 0 mm 2 mps 737 mmHg 44%
    16:00 +16°C° 0 mm 2 mps 737 mmHg 46%
    17:00 +15°C° 0.1 mm 2 mps 737 mmHg 52%
    18:00 +14°C° 0.1 mm 1 mps 737 mmHg 59%
    19:00 +12°C° 0.1 mm 1 mps 738 mmHg 66%
    20:00 +12°C° 0.3 mm 2 mps 738 mmHg 67%
    21:00 +12°C° 0.3 mm 2 mps 738 mmHg 68%
    22:00 +12°C° 0.3 mm 2 mps 738 mmHg 69%
    23:00 +10°C° 0.3 mm 2 mps 738 mmHg 69%

    28 March, Thursday

    Time Temperature Precipitation Wind Pressure Humidity
    00:00 +10°C° 0.3 mm 3 mps 738 mmHg 69%
    01:00 +10°C° 0.3 mm 3 mps 738 mmHg 69%
    02:00 +9°C° 0.1 mm 3 mps 738 mmHg 69%
    03:00 +9°C° 0.1 mm 3 mps 738 mmHg 70%
    04:00 +8°C° 0.1 mm 3 mps 738 mmHg 70%
    05:00 +9°C° 0 mm 3 mps 738 mmHg 69%
    06:00 +9°C° 0 mm 3 mps 738 mmHg 68%
    07:00 +10°C° 0 mm 4 mps 739 mmHg 67%
    08:00 +11°C° 0 mm 4 mps 739 mmHg 62%
    09:00 +12°C° 0 mm 5 mps 739 mmHg 57%
    10:00 +14°C° 0 mm 5 mps 739 mmHg 51%
    11:00 +14°C° 0 mm 5 mps 739 mmHg 49%
    12:00 +14°C° 0 mm 5 mps 739 mmHg 46%
    13:00 +15°C° 0 mm 5 mps 739 mmHg 43%
    14:00 +15°C° 0 mm 5 mps 739 mmHg 43%
    15:00 +14°C° 0 mm 5 mps 739 mmHg 43%
    16:00 +14°C° 0 mm 5 mps 738 mmHg 43%
    17:00 +13°C° 0 mm 4 mps 739 mmHg 46%
    18:00 +11°C° 0 mm 4 mps 739 mmHg 50%
    19:00 +10°C° 0 mm 3 mps 739 mmHg 54%
    20:00 +9°C° 0 mm 3 mps 739 mmHg 56%
    21:00 +9°C° 0 mm 3 mps 739 mmHg 59%
    22:00 +8°C° 0 mm 3 mps 740 mmHg 61%
    23:00 +8°C° 0 mm 3 mps 740 mmHg 63%

    29 March, Friday

    Time Temperature Precipitation Wind Pressure Humidity
    00:00 +8°C° 0 mm 3 mps 740 mmHg 65%
    01:00 +7°C° 0 mm 3 mps 740 mmHg 67%
    02:00 +7°C° 0 mm 3 mps 740 mmHg 69%
    03:00 +7°C° 0 mm 3 mps 740 mmHg 70%
    04:00 +5°C° 0 mm 3 mps 740 mmHg 72%
    05:00 +7°C° 0 mm 3 mps 740 mmHg 69%
    06:00 +8°C° 0 mm 3 mps 740 mmHg 67%
    07:00 +8°C° 0 mm 3 mps 740 mmHg 64%
    08:00 +10°C° 0 mm 3 mps 740 mmHg 56%
    09:00 +11°C° 0 mm 3 mps 740 mmHg 47%
    10:00 +13°C° 0 mm 4 mps 740 mmHg 38%
    11:00 +14°C° 0 mm 4 mps 739 mmHg 35%
    12:00 +14°C° 0 mm 4 mps 739 mmHg 32%
    13:00 +15°C° 0 mm 4 mps 739 mmHg 29%
    14:00 +15°C° 0 mm 4 mps 738 mmHg 29%
    15:00 +15°C° 0 mm 4 mps 738 mmHg 30%
    16:00 +14°C° 0 mm 5 mps 738 mmHg 31%
    17:00 +13°C° 0 mm 4 mps 738 mmHg 34%
    18:00 +11°C° 0 mm 3 mps 738 mmHg 38%
    19:00 +9°C° 0 mm 3 mps 738 mmHg 42%
    20:00 +9°C° 0 mm 3 mps 739 mmHg 44%
    21:00 +8°C° 0 mm 3 mps 739 mmHg 47%
    22:00 +7°C° 0 mm 3 mps 739 mmHg 49%
    23:00 +7°C° 0 mm 3 mps 739 mmHg 51%
    Show more